Regional Weather Roundup
Issued by NWS

Home | Current Version | Previous Version | Text Only | Print | Product List | Glossary Off
Versions: 1 2 3 4 5 6 7 8 9 10 11 12 13 14 15 16 17 18 19 20 21 22 23 24 25 26 27 28 29 30 31 32 33 34 35 36 37 38 39 40 41 42 43 44 45 46 47 48 49 50

000
ASUS43 KTOP 181808
RWRKS

WEATHER ROUNDUP FOR KANSAS
NATIONAL WEATHER SERVICE GOODLAND KS
1200 PM CST THU DEC 18 2014

NOTE:  "FAIR" INDICATES FEW OR NO CLOUDS BELOW 12,000 FEET WITH NO
SIGNIFICANT WEATHER AND/OR OBSTRUCTIONS TO VISIBILITY.

KSZ001>006-013>018-027>032-041>047-181900-
NORTHWEST KANSAS

CITY           SKY/WX    TMP DP  RH WIND       PRES   REMARKS
GOODLAND       MOSUNNY   28  27  96 SW8       30.09F
6HR MIN TEMP:   7; 6HR MAX TEMP:  28;

HAYS           CLOUDY    30  19  64 CALM      30.18F
HILL CITY      CLOUDY    29  26  89 SW6       30.18F
6HR MIN TEMP:  26; 6HR MAX TEMP:  30;

RUSSELL        CLOUDY    30  27  88 CALM      30.17F
6HR MIN TEMP:  25; 6HR MAX TEMP:  30;

$$

KSZ061>065-074>080-084>089-181900-
SOUTHWEST KANSAS

CITY           SKY/WX    TMP DP  RH WIND       PRES   REMARKS
DODGE CITY     CLOUDY    30  27  88 N7        30.16F
6HR MIN TEMP:  28; 6HR MAX TEMP:  30;

ELKHART          N/A     35  27  73 NE6         N/A
GARDEN CITY    CLOUDY    30  28  92 N5        30.14F
6HR MIN TEMP:  27; 6HR MAX TEMP:  30;

GREAT BEND     CLOUDY    30  25  80 CALM      30.19F
LIBERAL        CLOUDY    34  30  86 N7        30.16S
PRATT          CLOUDY    32  32 100 N3        30.19S FOG
$$

KSZ066>073-081>083-090>101-181900-
SOUTHEAST KANSAS

CITY           SKY/WX    TMP DP  RH WIND       PRES   REMARKS
CHANUTE        CLOUDY    35  34  96 CALM      30.19F FOG
6HR MIN TEMP:  31; 6HR MAX TEMP:  35; 6HR PCP: TRACE;

COFFEYVILLE    FOG       36  36 100 MISG      30.20F VSB 1/2
6HR MIN TEMP:  34; 6HR MAX TEMP:  36;

HUTCHINSON     CLOUDY    33  29  85 NW3       30.19F
6HR MIN TEMP:  29; 6HR MAX TEMP:  33;

MEDICINE LODGE   N/A     34  32  92 NE3       30.18F
NEWTON         CLOUDY    30  25  80 CALM      30.20F
PARSONS        CLOUDY    36  36 100 CALM      30.21F
6HR MIN TEMP:  33; 6HR MAX TEMP:  37;

WICHITA INTL   CLOUDY    33  30  88 N5        30.19F FOG
6HR MIN TEMP:  32; 6HR MAX TEMP:  33;

WICHITA JABRA  CLOUDY    32  30  92 N3        30.19F FOG
6HR MIN TEMP:  29; 6HR MAX TEMP:  32;

WICHITA MCCONL CLOUDY    33  31  95 N5        30.19F
WINFIELD       CLOUDY    34  34 100 N3        30.20F FOG
6HR MIN TEMP:  32; 6HR MAX TEMP:  34; 6HR PCP: TRACE;

$$

KSZ007>012-019>026-033>040-048>060-102>105-181900-
NORTHEAST KANSAS

CITY           SKY/WX    TMP DP  RH WIND       PRES   REMARKS
CONCORDIA      CLOUDY    28  26  92 CALM      30.20F
6HR MIN TEMP:  25; 6HR MAX TEMP:  28; 6HR PCP: TRACE;

EMPORIA        CLOUDY    31  29  92 CALM      30.20F FOG
6HR MIN TEMP:  28; 6HR MAX TEMP:  31; 6HR PCP: TRACE;

LAWRENCE       CLOUDY    32  28  85 E3        30.23F FOG
6HR MIN TEMP:  28; 6HR MAX TEMP:  32; 6HR PCP:  0.02;

MANHATTAN      CLOUDY    33  28  81 CALM      30.22F
6HR MIN TEMP:  27; 6HR MAX TEMP:  33; 6HR PCP:  0.01;

MARYSVILLE     CLOUDY    30  27  86 CALM      30.21F
OLATHE IND     CLOUDY    32  29  88 E5        30.21F
6HR MIN TEMP:  28; 6HR MAX TEMP:  33; 6HR PCP: TRACE;

OLATHE EXE     CLOUDY    32  29  88 E6        30.20F FOG
6HR MIN TEMP:  28; 6HR MAX TEMP:  32; 6HR PCP:  0.01;

SALINA         CLOUDY    31  26  82 CALM      30.22F
6HR MIN TEMP:  28; 6HR MAX TEMP:  31; 6HR PCP: TRACE;

TOPEKA BILLARD CLOUDY    32  30  92 CALM      30.23F FOG
6HR MIN TEMP:  29; 6HR MAX TEMP:  32; 6HR PCP:  0.01;

TOPEKA FORBES  CLOUDY    32  29  88 N3        30.21F FOG
6HR MIN TEMP:  29; 6HR MAX TEMP:  33; 6HR PCP:  0.01;

$$


USA.gov is the U.S. government's official web portal to all federal, state and local government web resources and services.